Temperature
16 16 16 16 15 15 15 15 15 15 15 15 15 15 15 15 15 15 15 14 14 14 14 14 14 14 14 14 14 14 14 13 13 13 13 12 12 12 12 12 12 12 12
16 16 16 16 15 15 15 15 15 15 15 15 15 15 15 15 15 15 14 14 14 14 14 14 14 14 14 14 14 14 13 13 13 13 13 12 12 12 12 12 12 12 12
16 16 16 16 16 15 15 15 15 15 15 15 15 15 15 15 15 14 14 14 14 14 14 14 14 14 14 14 14 14 13 13 13 13 13 12 12 12 12 12 12 12 12
16 16 16 16 16 16 15 15 15 15 15 15 15 15 15 15 15 14 14 14 14 14 14 14 14 14 14 14 14 13 13 13 13 13 13 12 12 12 12 12 12 12 11
16 16 16 16 16 16 15 15 15 15 15 15 15 15 15 15 15 14 14 14 14 14 14 14 14 14 14 13 13 13 13 13 13 13 12 12 12 12 12 12 11 11 11
16 16 16 16 16 16 15 15 15 15 15 15 15 15 15 15 15 14 14 14 14 14 14 14 14 14 13 13 13 13 13 13 13 12 12 12 12 12 12 11 11 11 11
16 16 16 16 16 15 15 15 15 15 15 15 15 15 15 15 15 14 14 14 14 14 14 14 14 14 13 13 13 13 13 13 12 12 12 12 12 12 11 11 11 11 11
16 16 16 16 16 15 15 15 15 15 15 15 15 15 15 15 14 14 14 14 14 14 14 13 13 13 13 13 13 13 13 12 12 12 12 12 11 11 11 11 11 11 10
16 16 16 16 16 15 15 15 15 15 15 15 15 15 15 15 14 14 14 14 14 14 14 13 13 13 13 13 13 13 13 12 12 12 12 11 11 11 11 11 11 11 10
16 16 16 16 16 16 15 15 15 15 15 15 15 15 14 14 14 14 14 14 14 14 14 13 13 13 13 13 13 12 12 12 12 12 12 11 11 11 11 11 10 10 10
16 16 16 16 16 16 15 15 15 15 15 15 15 14 14 14 14 14 14 14 14 13 13 13 13 13 13 13 12 12 12 12 12 12 11 11 11 11 11 10 10 10 10
16 16 16 16 16 15 15 15 15 15 15 14 14 14 14 14 14 14 13 13 13 13 13 13 13 12 12 12 12 12 12 12 12 11 11 11 11 11 10 10 10 10 9
16 16 16 16 15 15 15 15 15 15 15 14 14 14 14 14 14 14 13 13 13 13 13 13 12 12 12 12 12 12 11 11 11 11 11 11 10 10 10 10 10 9 9
16 16 15 15 15 15 15 15 15 15 15 14 14 14 14 14 14 13 13 13 13 13 13 12 12 12 12 12 11 11 11 11 11 11 11 10 10 10 10 10 9 9 9
15 15 15 15 15 15 15 15 15 15 15 14 14 14 14 14 14 13 13 13 13 13 12 12 12 12 12 11 11 11 11 11 11 11 10 10 10 10 9 9 9 9 9
15 15 15 15 15 15 14 14 14 14 14 14 14 14 13 13 13 13 13 13 12 12 12 12 12 11 11 11 11 11 11 10 10 10 10 10 10 9 9 9 8 8 8
15 15 15 14 14 14 14 14 14 14 13 13 13 13 13 13 13 13 12 12 12 12 12 12 11 11 11 11 10 10 10 10 10 9 9 9 9 9 8 8 8 8 8
14 14 14 14 14 14 14 14 14 13 13 13 13 13 13 12 12 12 12 12 12 11 11 11 11 11 10 10 10 10 10 10 9 9 9 9 9 8 8 8 7 7 7
14 14 14 14 14 14 13 13 13 13 13 13 13 12 12 12 12 12 11 11 11 11 11 11 11 10 10 10 10 10 10 9 9 9 9 9 8 8 8 7 7 7 6
14 14 14 13 13 13 13 13 13 12 12 12 12 12 12 12 12 11 11 11 11 11 11 10 10 10 10 10 10 10 9 9 9 9 8 8 8 8 7 7 7 6 6
13 13 13 13 13 13 12 12 12 12 12 12 12 12 11 11 11 11 11 11 11 11 10 10 10 10 10 10 9 9 9 9 9 8 8 8 7 7 7 7 6 6 6
13 13 13 13 12 12 12 12 12 11 11 11 11 11 11 11 11 11 10 10 10 10 10 10 9 9 9 9 9 9 9 8 8 8 8 7 7 7 6 6 6 5 5
13 12 12 12 12 12 12 11 11 11 11 11 11 11 10 10 10 10 10 10 10 9 9 9 9 9 9 8 8 8 8 8 8 7 7 7 7 6 6 5 5 5 5
12 12 12 12 12 11 11 11 11 11 10 10 10 10 10 10 10 10 10 9 9 9 9 9 8 8 8 8 8 8 7 7 7 7 6 6 6 6 5 5 5 4 4
12 12 11 11 11 11 11 11 10 10 10 10 10 10 9 9 9 9 9 9 9 8 8 8 8 8 8 8 7 7 7 7 6 6 6 6 5 5 5 4 4 4 3
11 11 11 11 11 10 10 10 10 10 10 9 9 9 9 9 9 9 9 8 8 8 8 8 7 7 7 7 7 7 7 6 6 6 5 5 5 5 4 4 4 3 3
Wind_Speed
5 4 4 3 3 3 3 3 2 1 2 3 3 3 3 3 3 3 3 3 3 2 2 2 2 2 3 2 3 3 2 3 2 1 1 1 2 2 4 5 5 6 7
5 4 4 3 3 3 3 3 3 2 2 3 3 3 3 3 3 3 3 3 3 2 2 3 2 3 3 3 3 3 2 2 3 1 1 2 2 1 2 3 4 4 5
5 5 4 4 4 4 4 3 3 3 2 3 3 3 3 3 3 3 3 3 3 2 2 3 3 4 3 2 3 3 2 2 2 2 0 1 1 2 2 2 3 4 4
5 5 5 5 5 5 4 3 3 3 3 3 3 3 3 3 3 3 3 3 2 2 2 2 3 4 4 4 3 3 3 3 3 3 1 1 1 1 1 2 2 3 3
6 6 6 5 4 4 4 4 3 3 4 4 3 3 2 3 3 4 4 3 3 2 1 1 2 4 5 5 4 4 4 3 3 2 1 1 1 1 1 1 1 2 2
7 7 6 5 4 4 4 4 4 3 3 4 4 4 3 2 4 6 5 4 3 3 2 1 1 2 4 5 6 7 7 5 4 3 1 1 2 2 1 0 0 1 2
7 6 6 6 5 5 5 5 5 4 4 4 4 4 3 3 5 6 7 5 3 3 2 2 1 2 3 3 4 4 4 4 6 5 4 3 3 3 2 1 1 1 1
6 6 6 6 6 5 5 5 5 4 4 4 4 4 3 3 5 5 7 5 3 2 2 2 2 2 3 5 4 4 2 1 3 3 3 3 3 3 4 3 3 1 1
7 7 7 7 7 6 6 6 5 5 4 4 3 4 4 4 6 7 7 4 3 2 2 2 3 3 4 7 5 4 1 0 1 3 3 2 1 2 4 3 2 1 1
8 8 7 7 8 8 7 6 5 5 5 4 4 4 4 4 6 8 8 4 3 2 1 2 3 4 4 7 5 5 3 2 1 2 1 1 1 1 3 3 3 2 1
6 6 6 6 7 7 6 5 5 5 4 4 4 3 3 4 5 7 9 5 5 4 2 2 2 5 5 6 6 4 5 3 2 2 1 1 2 2 1 1 2 3 2
4 5 5 5 6 5 6 5 5 6 5 4 3 2 2 3 4 6 9 8 7 5 4 3 3 5 6 6 5 4 4 4 2 2 1 0 0 1 1 0 1 2 2
5 5 5 5 4 5 6 6 5 5 5 4 4 3 2 2 3 6 8 8 8 5 3 5 5 5 5 3 4 4 4 3 3 2 2 2 2 1 0 1 1 1 1
5 4 4 5 4 4 4 5 5 6 6 5 5 5 3 2 3 3 3 4 5 4 2 3 4 3 3 2 2 1 2 3 3 3 2 1 0 0 1 1 0 0 1
5 4 4 4 5 5 4 4 5 5 6 7 6 6 5 5 6 8 6 5 5 5 4 2 2 2 2 1 1 1 1 2 2 1 2 1 1 0 0 0 1 1 0
5 4 4 4 4 5 5 3 2 3 4 6 6 6 5 6 6 8 9 8 8 9 6 3 3 3 3 3 3 2 2 2 2 2 2 2 2 2 1 0 1 1 2
6 5 4 5 5 5 5 5 3 2 3 3 5 6 6 6 7 8 8 8 7 8 4 3 3 3 3 3 3 3 2 3 2 3 3 2 2 2 1 1 1 1 2
5 6 6 5 5 5 5 5 5 5 3 1 1 4 6 6 6 7 8 7 4 4 3 3 3 3 3 3 3 3 2 2 2 2 2 2 2 2 2 2 2 3 3
5 5 5 5 4 5 5 5 4 5 4 3 2 2 4 5 5 6 7 4 4 4 3 3 3 3 3 3 3 3 3 3 3 2 2 3 3 3 3 3 3 3 3
5 7 6 5 5 5 5 5 5 5 4 3 3 3 3 4 3 3 3 3 4 4 3 3 3 3 3 3 2 2 2 2 2 3 3 3 3 3 3 3 3 3 3
5 6 7 5 5 5 5 5 5 5 4 3 3 3 6 4 4 4 4 3 4 4 4 3 3 2 2 2 2 3 3 2 2 3 3 3 3 3 3 3 3 3 3
5 5 5 5 5 5 5 5 5 5 5 4 2 3 6 4 3 3 3 3 3 3 3 3 3 2 2 2 3 3 3 3 3 3 3 3 3 3 3 3 3 3 4
6 6 5 5 5 6 6 5 4 5 4 4 4 3 3 3 3 3 3 3 3 3 3 3 3 2 1 2 2 3 3 3 3 3 3 3 3 3 3 3 4 4 4
6 6 6 5 5 5 5 5 5 5 4 4 4 3 3 3 3 3 2 2 3 3 3 3 3 2 2 1 1 2 3 3 3 3 3 3 3 3 3 3 4 5 5
6 6 6 6 6 5 5 5 5 5 4 4 4 3 3 3 3 3 2 3 3 3 3 3 2 2 2 2 1 2 3 4 4 3 3 2 3 3 3 3 4 4 4
5 6 5 5 5 5 5 5 5 5 4 4 3 3 3 3 3 2 3 3 3 3 2 2 2 2 1 1 1 1 2 2 3 4 3 1 2 3 3 3 4 4 4
Wind_Direction
181 176 170 181 169 154 159 171 173 157 148 146 145 143 138 131 121 124 128 120 112 101 108 127 125 125 124 119 112 112 115 128 154 283 319 339 11 12 13 18 18 19 19
180 169 172 171 156 160 175 179 168 170 172 163 148 148 145 137 135 141 142 136 136 137 141 128 131 128 120 125 124 120 127 131 145 163 341 353 354 348 356 5 10 14 12
167 163 167 173 175 186 192 181 166 169 169 161 154 162 161 158 151 153 149 144 147 157 155 151 156 142 140 139 132 127 124 113 114 136 125 2 356 4 11 5 13 8 7
168 173 185 194 192 195 191 179 176 171 166 164 161 165 165 164 160 156 148 147 143 144 150 157 160 161 167 159 147 139 127 111 105 108 91 28 0 348 30 15 360 0 360
175 186 200 197 187 183 183 179 175 173 172 163 154 153 157 161 175 168 162 158 156 152 143 151 158 168 173 163 153 152 140 128 120 112 103 52 359 3 308 291 297 326 337
182 194 197 186 181 186 188 176 167 168 163 155 163 165 174 190 181 174 163 158 162 161 165 169 154 154 166 156 149 147 147 146 154 146 150 177 240 228 212 184 181 14 324
186 191 188 185 187 194 184 170 176 178 168 168 176 174 185 203 187 175 166 153 152 162 167 162 138 129 141 138 135 137 142 144 152 156 162 200 210 214 180 168 177 174 234
188 193 192 187 191 190 178 180 182 174 173 178 183 188 190 211 193 174 160 148 143 156 167 170 161 157 147 142 128 116 115 125 158 156 176 200 201 191 183 186 188 179 281
194 200 199 191 191 188 189 192 184 171 178 183 184 186 192 216 194 177 156 143 148 164 168 165 171 171 162 150 139 141 137 289 144 165 178 194 188 158 151 113 100 102 305
207 206 199 193 192 195 198 192 179 174 184 181 185 193 197 210 193 181 166 152 159 172 168 180 179 178 172 161 158 162 182 228 149 96 71 33 48 85 148 158 165 157 189
207 197 191 192 197 196 191 183 172 170 169 174 183 199 204 210 198 184 175 170 177 175 179 195 198 180 176 168 164 174 193 178 144 134 104 44 42 49 55 174 176 168 176
185 188 191 195 196 189 178 177 168 164 166 176 176 196 220 215 199 190 183 184 176 172 190 197 187 169 169 168 169 174 172 150 128 121 112 24 318 292 299 267 197 202 204
183 194 192 189 190 178 172 173 166 166 173 181 181 195 216 204 198 190 188 187 183 184 191 172 165 165 162 164 172 172 161 144 139 151 195 238 247 237 138 73 58 75 29
184 193 186 180 180 174 171 173 174 179 180 185 190 197 202 199 201 192 183 181 177 180 184 149 142 148 150 140 133 160 160 162 167 189 203 220 192 102 129 146 134 75 25
183 187 181 177 172 170 167 176 184 196 191 189 197 191 188 207 211 188 178 182 183 174 145 114 109 115 133 147 145 154 154 155 178 193 191 194 177 153 236 136 132 117 190
177 180 176 171 169 163 154 134 126 162 171 184 184 178 192 194 181 178 180 177 169 157 138 145 164 173 186 194 190 190 184 197 205 196 198 206 207 212 232 189 147 184 238
182 184 176 170 169 166 162 161 155 97 97 148 173 172 173 171 171 168 167 163 158 149 145 161 175 190 200 201 200 199 211 214 198 191 204 215 213 211 213 224 224 237 254
180 181 173 173 175 173 172 171 169 164 157 140 170 169 171 167 165 165 157 134 126 144 163 180 192 197 199 199 203 204 208 193 182 192 203 211 208 208 219 232 233 238 251
177 175 171 166 166 166 161 161 159 160 161 159 131 135 150 141 134 138 141 144 160 173 189 200 203 200 202 199 200 195 189 193 190 190 206 213 214 212 226 236 240 248 247
179 172 164 160 157 156 157 159 162 162 165 171 180 187 156 127 129 143 157 170 177 184 187 194 199 195 197 194 191 188 188 196 195 203 215 219 218 217 228 233 235 242 249
170 168 159 152 160 164 164 169 169 165 169 179 197 188 164 157 167 169 169 179 188 191 189 186 189 191 196 190 187 189 191 207 210 215 218 220 216 222 232 236 241 244 250
164 162 162 162 162 162 163 164 163 164 168 170 169 154 158 155 163 164 171 182 185 178 167 160 168 170 179 184 190 192 200 215 223 220 220 219 217 223 229 236 244 248 252
158 157 155 156 157 156 155 155 157 160 161 162 158 147 147 161 166 168 174 175 158 152 146 147 153 157 160 167 180 185 206 227 233 220 215 217 218 223 225 233 241 250 256
155 154 154 153 152 156 158 160 160 160 159 156 151 150 153 157 155 158 161 148 140 140 140 147 156 165 169 172 197 210 230 242 236 226 215 215 221 231 235 241 248 253 257
149 150 151 152 153 156 158 159 158 156 156 155 155 155 156 154 152 151 149 143 142 142 142 145 142 150 170 190 197 217 231 235 236 231 219 220 229 233 239 246 255 263 266
147 148 149 148 149 151 153 153 152 152 153 153 151 149 147 143 142 146 148 149 153 152 143 135 138 148 153 186 215 232 252 260 257 246 232 241 239 244 243 250 256 262 268
Height
1542 1544 1545 1547 1548 1549 1550 1551 1551 1552 1552 1553 1553 1554 1554 1554 1555 1555 1555 1555 1555 1556 1556 1556 1556 1557 1557 1557 1558 1558 1558 1558 1557 1557 1557 1557 1556 1555 1554 1553 1552 1550 1549
1541 1542 1544 1545 1547 1548 1549 1550 1551 1551 1552 1552 1553 1553 1554 1554 1554 1554 1554 1555 1555 1555 1555 1556 1556 1556 1556 1557 1557 1557 1557 1557 1557 1557 1556 1556 1556 1555 1554 1553 1552 1551 1550
1539 1541 1542 1544 1545 1547 1548 1549 1550 1550 1551 1551 1552 1552 1553 1553 1553 1554 1554 1554 1554 1554 1555 1555 1555 1556 1556 1556 1556 1557 1557 1557 1557 1556 1556 1556 1555 1555 1554 1553 1552 1551 1550
1537 1539 1541 1542 1544 1545 1546 1547 1548 1549 1550 1550 1551 1551 1552 1552 1553 1553 1553 1553 1554 1554 1554 1555 1555 1555 1556 1556 1556 1556 1556 1556 1556 1556 1556 1555 1555 1555 1554 1553 1552 1552 1550
1535 1537 1538 1540 1542 1543 1544 1545 1546 1547 1548 1549 1550 1550 1551 1551 1552 1552 1552 1553 1553 1553 1553 1554 1554 1555 1555 1555 1556 1556 1556 1556 1556 1556 1555 1555 1554 1554 1554 1553 1552 1551 1550
1532 1534 1536 1538 1539 1540 1542 1543 1544 1545 1546 1547 1548 1549 1550 1550 1551 1551 1552 1552 1552 1552 1552 1553 1553 1554 1554 1555 1555 1555 1556 1556 1555 1555 1555 1554 1554 1554 1553 1552 1552 1551 1550
1529 1531 1532 1534 1536 1538 1539 1540 1542 1543 1544 1545 1546 1547 1548 1549 1549 1550 1550 1551 1551 1551 1552 1552 1552 1553 1553 1554 1554 1554 1554 1554 1555 1555 1554 1554 1553 1553 1552 1551 1551 1550 1549
1526 1527 1529 1531 1533 1534 1536 1537 1539 1540 1542 1543 1544 1545 1546 1547 1548 1548 1549 1549 1549 1550 1550 1551 1551 1552 1552 1553 1553 1553 1553 1553 1553 1553 1553 1553 1552 1552 1551 1551 1550 1549 1548
1522 1524 1526 1527 1529 1531 1532 1534 1536 1537 1539 1540 1542 1543 1544 1545 1546 1546 1547 1547 1548 1548 1548 1549 1550 1550 1551 1551 1552 1552 1552 1552 1552 1552 1552 1551 1551 1550 1550 1549 1548 1547 1546
1518 1520 1522 1524 1525 1527 1528 1531 1532 1534 1536 1537 1539 1540 1541 1542 1543 1544 1545 1545 1545 1546 1546 1547 1548 1548 1549 1549 1549 1550 1550 1550 1550 1550 1550 1549 1549 1548 1548 1547 1546 1546 1544
1515 1517 1518 1520 1521 1523 1525 1527 1529 1531 1533 1534 1535 1537 1538 1539 1540 1541 1542 1543 1543 1544 1544 1545 1545 1546 1546 1547 1547 1547 1547 1548 1548 1548 1548 1547 1547 1546 1545 1545 1544 1544 1543
1512 1513 1514 1516 1518 1520 1521 1523 1525 1527 1529 1530 1532 1533 1534 1536 1537 1538 1539 1540 1541 1541 1542 1542 1543 1543 1543 1544 1544 1544 1545 1545 1545 1545 1545 1544 1544 1543 1543 1543 1542 1541 1540
1508 1509 1511 1513 1514 1516 1518 1520 1521 1523 1525 1526 1528 1529 1530 1532 1533 1535 1536 1537 1537 1538 1539 1539 1540 1540 1540 1541 1541 1542 1542 1542 1542 1542 1542 1541 1541 1541 1541 1540 1539 1539 1538
1504 1506 1507 1509 1510 1512 1514 1516 1518 1519 1521 1522 1524 1525 1527 1528 1529 1531 1532 1533 1534 1534 1535 1536 1536 1537 1537 1537 1538 1538 1538 1538 1539 1539 1539 1539 1539 1538 1537 1537 1536 1535 1534
1500 1502 1503 1505 1506 1508 1510 1512 1514 1516 1517 1519 1520 1522 1523 1524 1526 1527 1528 1529 1530 1531 1531 1532 1532 1533 1533 1533 1534 1534 1535 1535 1535 1535 1535 1535 1535 1535 1534 1533 1533 1532 1530
1496 1498 1499 1500 1502 1504 1506 1508 1510 1513 1514 1516 1517 1518 1519 1521 1522 1523 1524 1525 1526 1527 1528 1528 1528 1529 1529 1530 1530 1531 1531 1531 1532 1532 1532 1532 1531 1531 1530 1530 1529 1528 1526
1493 1494 1495 1497 1498 1500 1502 1504 1506 1508 1510 1512 1514 1515 1516 1517 1519 1520 1521 1522 1522 1523 1523 1524 1524 1525 1526 1526 1527 1527 1527 1528 1528 1528 1528 1528 1528 1527 1527 1526 1525 1524 1522
1489 1491 1492 1493 1495 1497 1499 1501 1503 1504 1506 1508 1510 1512 1513 1514 1515 1516 1517 1518 1519 1519 1519 1520 1521 1522 1522 1523 1523 1523 1524 1524 1524 1524 1524 1524 1524 1523 1522 1521 1521 1519 1518
1486 1487 1488 1490 1492 1493 1495 1497 1499 1501 1503 1505 1507 1508 1510 1511 1512 1513 1514 1514 1515 1515 1516 1517 1517 1518 1519 1519 1520 1520 1520 1520 1520 1520 1520 1520 1520 1519 1518 1517 1516 1515 1514
1482 1483 1485 1487 1488 1490 1492 1494 1495 1497 1500 1501 1503 1505 1506 1507 1508 1509 1510 1510 1511 1512 1513 1513 1514 1515 1515 1516 1516 1516 1516 1516 1516 1516 1516 1516 1515 1514 1513 1513 1512 1511 1509
1478 1480 1482 1483 1485 1487 1489 1490 1492 1494 1496 1498 1500 1502 1503 1504 1505 1506 1506 1507 1508 1509 1509 1510 1511 1511 1512 1512 1512 1512 1512 1512 1512 1512 1512 1511 1511 1510 1509 1508 1507 1506 1505
1475 1476 1478 1480 1482 1484 1486 1488 1490 1491 1493 1495 1496 1498 1499 1500 1502 1502 1503 1504 1505 1505 1506 1507 1507 1508 1508 1508 1509 1509 1508 1508 1508 1508 1507 1507 1506 1505 1504 1503 1502 1501 1500
1472 1473 1475 1477 1479 1481 1483 1485 1487 1488 1490 1492 1493 1495 1496 1497 1498 1499 1500 1501 1502 1502 1503 1503 1504 1504 1504 1505 1504 1504 1504 1504 1504 1504 1503 1502 1501 1500 1499 1498 1497 1496 1495
1469 1470 1472 1474 1476 1478 1480 1482 1484 1486 1487 1489 1490 1492 1493 1494 1495 1496 1497 1498 1498 1499 1500 1500 1500 1501 1501 1501 1501 1501 1500 1500 1500 1500 1499 1498 1497 1496 1494 1493 1492 1491 1490
1466 1468 1470 1472 1474 1475 1478 1479 1481 1483 1485 1486 1488 1489 1490 1491 1492 1493 1494 1495 1495 1496 1496 1496 1497 1497 1497 1497 1497 1497 1496 1496 1496 1495 1494 1493 1492 1491 1490 1489 1488 1487 1485
1464 1466 1468 1470 1472 1473 1475 1477 1479 1481 1482 1484 1485 1486 1488 1488 1489 1490 1491 1491 1492 1492 1493 1493 1493 1493 1493 1493 1493 1493 1492 1492 1492 1491 1490 1489 1488 1487 1486 1485 1483 1482 1481